|
|
Asteroid 2010 PQ2
(Preview)
Orbital elements: 2010 PQ2 Earth MOID = 0.0370 AU Epoch 2010 July 23.0 TT = JDT 2455400.5 MPC M 355.03334 (2000.0) P Q n 0.34614112 Peri. 2.60136 +0.70470625 +0.70906080 a 2.0089413 Node 312.20600 -0.65155907 +0.63284606 e 0.4767557 Incl. 1.92928 -0.28082002 +0.31102837 P 2.85 H 24.7 G 0.15 U 8 [ur...
|
Blobrana
|
1
|
|
|
|
|
Asteroid 2010 PP2
(Preview)
Orbital elements: 2010 PP2 Earth MOID = 0.2463 AU Epoch 2010 July 23.0 TT = JDT 2455400.5 MPC M 354.49955 (2000.0) P Q n 0.23575783 Peri. 9.58171 +0.80301863 +0.58945080 a 2.5951271 Node 313.92367 -0.55453120 +0.68508285 e 0.5151580 Incl. 7.00175 -0.21830308 +0.42802950 P 4.18 H 21.0 G 0.15 U 9 [ur...
|
Blobrana
|
0
|
|
|
|
|
Asteroid 2010 PO2
(Preview)
Orbital elements: 2010 PO2 Earth MOID = 0.0594 AU Epoch 2010 July 23.0 TT = JDT 2455400.5 MPC M 328.56820 (2000.0) P Q n 0.58400512 Peri. 45.85623 +0.97244488 +0.07036703 a 1.4175061 Node 308.81260 -0.18380882 +0.81785259 e 0.2878149 Incl. 16.57326 +0.14340598 +0.57110912 P 1.69 H 23.5 G 0.15 U 8 [...
|
Blobrana
|
0
|
|
|
|
|
Asteroid 2010 OM101
(Preview)
Orbital elements: 2010 OM101 Epoch 2010 July 23.0 TT = JDT 2455400.5 MPC M 359.92919 (2000.0) P Q n 0.00100075 Peri. 147.92154 +0.76311192 +0.05889013 a 98.9887383 Node 132.67793 -0.59679556 -0.31790450 e 0.9784393 Incl. 118.90688 +0.24798238 -0.94629207 P 985 H 16.3 G 0.15 From 22 observation...
|
Blobrana
|
0
|
|
|
|
|
Asteroid 2010 OL101
(Preview)
Orbital elements: 2010 OL101 Earth MOID = 0.3122 AU Epoch 2010 July 23.0 TT = JDT 2455400.5 MPC M 3.41631 (2000.0) P Q n 0.21301001 Peri. 103.61588 +0.08442842 +0.99351504 a 2.7767453 Node 170.22042 -0.99548641 +0.08077724 e 0.6174818 Incl. 26.63781 +0.04334341 -0.08001811 P 4.63 H 20.2 G 0.15 U 9...
|
Blobrana
|
0
|
|
|
|
|
Asteroid 2010 OF101
(Preview)
Orbital elements: 2010 OF101 Earth MOID = 0.0633 AU Epoch 2010 July 23.0 TT = JDT 2455400.5 MPC M 126.01346 (2000.0) P Q n 1.06605199 Peri. 282.26360 -0.66207495 -0.71881941 a 0.9490384 Node 212.53665 +0.74303883 -0.66649522 e 0.3229673 Incl. 23.21734 -0.09772445 -0.19769367 P 0.92 H 19.5 G 0.15...
|
Blobrana
|
0
|
|
|
|
|
Asteroid 2010 OE101
(Preview)
Orbital elements: 2010 OE101 Epoch 2010 July 23.0 TT = JDT 2455400.5 MPC M 354.87503 (2000.0) P Q n 0.14964171 Peri. 174.44578 +0.98510773 -0.15074265 a 3.5137237 Node 195.00734 +0.14288382 +0.98527369 e 0.6153430 Incl. 18.62534 +0.09563984 +0.08069947 P 6.59 H 17.8 G 0.15 U 6 [url=http://www....
|
Blobrana
|
0
|
|
|
|
|
Asteroid 2010 OD101
(Preview)
Orbital elements: 2010 OD101 Earth MOID = 0.1906 AU Epoch 2010 July 23.0 TT = JDT 2455400.5 MPC M 10.96322 (2000.0) P Q n 0.47772307 Peri. 102.71963 +0.30416076 +0.95231760 a 1.6206351 Node 185.17924 -0.94420436 +0.29803192 e 0.3587097 Incl. 15.43776 -0.12635013 +0.06533114 P 2.06 H 20.7 G 0.15 U...
|
Blobrana
|
0
|
|
|
|
|
Asteroid 2010 OA101
(Preview)
Orbital elements: 2010 OA101 Epoch 2010 July 23.0 TT = JDT 2455400.5 MPC M 355.32589 (2000.0) P Q n 0.10729886 Peri. 198.01169 +0.91025333 -0.26258227 a 4.3860406 Node 161.23364 -0.13179445 +0.54922804 e 0.6844510 Incl. 84.33682 -0.39251636 -0.79334678 P 9.19 H 18.5 G 0.15 U 7 [url=http://www....
|
Blobrana
|
0
|
|
|
|
|
Asteroid 2001 FB90
(Preview)
Removed as an Earth Impact Risk.
|
Blobrana
|
0
|
|
|
|
|
Asteroid (2880) Nihondaira
(Preview)
The magnitude 14.2 asteroid (2880) Nihondaira will occult the magnitude 6.53 multiple star HD 190306 in the constellation Sagittarius, at 15:06 UT, 2nd August 2010. The 3.6 second event is visible from Australia. Position (2000): RA 20 05 32.0287, Dec -32 59 59.413
|
Blobrana
|
0
|
|
|
|
|
Asteroid 2007 VC138
(Preview)
The 370 - 820 metre wide asteroid 2007 VC138 will make a close pass (46.5 lunar distances, 0.1195 AU), travelling at 17.67 km/second, to the Earth-Moon system on the 17th November, 2010 @ 09:17 UT. See more The Lunar Dist...
|
Blobrana
|
0
|
|
|
|
|
Asteroid (31531) ARRL
(Preview)
Asteroid (31531) ARRL -- joins the prestigious company as one of more than 16,000 named minor planets in our solar system. A minor planet -- such as an asteroid --is an astronomical object in direct orbit around the Sun that is neither a dominant planet -- such as Mercury, Saturn and Neptune -- nor a co...
|
Blobrana
|
0
|
|
|
|
|
Asteroid 2010 HD112
(Preview)
Orbital elements: 2010 HD112 Epoch 2010 May 4.0 TT = JDT 2455320.5 MPC M 0.04634 (2000.0) P Q n 0.00332068 Peri. 310.15813 -0.63658907 +0.76830896 a 44.4957370 Node 280.17514 -0.68534817 -0.60328567 e 0.0303980 Incl. 3.88865 -0.35362727 -0.21388723 P 297 H 6.5 G 0.15 From 6 observations 2010 Apr...
|
Blobrana
|
0
|
|
|
|
|
Asteroid (1200) Imperatrix
(Preview)
The magnitude 15.4 asteroid (1200) Imperatrix will occult the magnitude 3.9 multiple star Gamma Librae (HD 138905) in the constellation Libra, at 05:13 UT, 28th July 2010. The 5.5 second event is visible from Central America and Hawaii. Position (2000): RA 15 35 31.5790, Dec -14 47 22.333
|
Blobrana
|
0
|
|
|